Wind_Speed
31 36 32 28 26 26 26 22 21 20 19 18 17 16 15 14 13 12 11 10 9 10 9 9 9 9 9 9 9 9 10 11 12 12 13 13 11 12 13 13 13 13 11
37 39 35 31 28 27 27 23 22 22 21 20 19 17 14 13 12 11 10 10 10 10 10 10 9 9 8 7 7 8 9 10 10 9 11 13 11 11 10 10 10 10 10
41 39 37 33 31 30 29 26 24 23 22 21 18 15 14 12 11 11 10 11 11 11 11 11 11 9 8 7 7 8 9 10 8 8 12 13 11 11 9 8 10 9 9
45 40 38 35 34 32 30 27 25 24 23 21 17 15 13 12 12 11 11 11 11 11 11 12 11 11 11 10 10 10 12 12 12 14 13 12 12 12 11 11 11 11 11
40 40 39 36 35 33 31 28 27 26 23 19 16 15 14 13 12 12 11 11 11 11 11 12 12 12 12 11 11 13 15 16 14 14 11 8 7 10 11 11 13 15 15
40 40 39 36 35 34 30 30 27 23 21 18 17 16 15 14 14 12 12 12 11 11 11 12 12 13 12 13 16 17 18 16 12 11 9 7 9 12 16 17 17 17 16
41 42 39 36 35 34 33 29 25 23 21 20 19 18 16 15 14 13 13 12 12 11 12 12 14 13 13 17 20 20 19 17 17 16 15 14 17 17 17 17 16 17 17
36 42 40 37 37 35 31 28 24 22 21 21 20 19 17 16 15 14 13 13 12 12 13 15 15 14 17 19 20 21 20 19 19 19 18 17 16 14 16 16 15 16 13
32 35 37 39 36 31 29 27 25 23 22 21 20 19 18 17 16 14 14 13 13 14 15 17 15 15 19 20 21 19 18 17 16 18 18 18 16 16 16 15 15 14 13
28 28 34 36 35 31 28 27 26 25 23 22 21 21 19 18 17 15 15 15 15 15 18 17 16 18 20 20 17 15 14 14 15 15 14 14 14 14 13 14 13 12 11
28 28 30 34 33 31 29 26 26 25 25 24 23 22 20 18 17 17 17 17 16 18 19 17 16 20 19 17 13 11 11 14 18 19 20 19 16 14 12 12 11 11 11
32 30 31 35 34 29 29 29 28 28 26 23 21 20 19 17 17 18 19 20 19 21 20 16 16 18 16 15 14 13 19 21 20 18 18 15 11 10 10 11 11 11 12
33 29 36 38 34 33 31 29 27 25 24 23 21 20 20 20 20 21 22 21 20 19 18 16 16 16 14 13 14 16 19 19 17 16 13 11 11 10 11 12 12 12 12
35 31 37 38 36 33 31 28 27 26 25 24 21 19 21 22 21 21 20 18 17 17 18 16 14 14 14 13 13 15 14 13 12 11 10 12 13 13 12 12 12 12 12
19 33 37 38 36 31 30 28 27 27 25 22 21 19 18 19 19 18 17 16 16 17 17 17 16 14 14 13 12 13 14 13 12 12 13 13 14 13 12 11 11 11 11
25 36 40 39 34 30 30 28 27 26 23 20 20 19 17 15 17 17 17 17 17 16 17 16 15 13 12 10 12 11 13 13 12 12 12 12 12 12 11 11 11 10 10
27 21 35 38 35 31 30 28 28 25 22 21 19 18 16 16 16 16 16 16 16 16 16 15 15 13 11 10 10 10 10 9 9 9 9 9 9 9 9 9 10 10 9
19 15 14 15 34 34 31 29 26 23 21 21 19 18 16 15 15 16 15 15 15 15 15 14 14 12 10 8 8 8 7 7 6 6 7 6 6 6 5 5 6 6 8
18 14 11 16 9 23 30 26 23 22 20 18 18 17 16 15 14 13 14 14 13 14 14 13 13 11 10 8 8 6 5 4 4 4 4 4 4 4 4 3 4 5 5
16 14 17 1 7 11 15 20 21 20 19 18 16 16 15 14 13 12 12 12 11 11 12 11 11 9 9 8 6 6 5 5 5 3 2 2 0 1 3 4 3 4 4
20 22 20 22 26 16 11 8 15 15 16 17 16 15 14 14 13 12 11 11 10 9 9 9 9 8 7 5 5 3 5 6 6 7 6 5 5 4 3 3 4 4 4
26 27 27 25 35 34 23 13 3 11 13 14 14 14 13 12 11 10 10 10 9 9 9 8 7 7 4 3 3 3 1 2 6 8 8 7 7 7 7 6 5 5 4
25 29 32 32 30 28 34 30 20 5 11 10 13 13 12 10 10 9 9 9 8 7 7 6 5 5 5 3 2 2 2 2 2 4 9 8 8 8 8 9 8 8 8
18 22 25 29 29 31 34 26 30 23 14 10 14 12 12 11 10 10 10 10 9 8 7 6 4 4 3 4 2 2 1 1 2 2 1 6 7 7 7 8 9 9 9
20 24 26 27 29 29 34 31 26 21 24 15 13 14 13 12 11 12 13 12 11 9 8 7 5 4 4 4 4 2 1 0 2 1 2 3 4 6 8 8 9 11 9
20 24 27 27 29 30 30 30 31 32 28 23 20 19 17 15 14 15 15 15 15 14 11 8 7 5 4 3 3 2 3 1 2 2 1 3 3 5 7 8 10 11 11
Wind_Direction
181 170 169 165 162 159 156 152 151 146 142 139 137 132 126 121 118 120 125 125 124 115 112 111 113 111 103 107 98 92 95 100 95 91 86 90 87 81 78 75 72 67 62
171 168 168 163 162 159 158 157 154 150 145 142 139 130 129 125 126 124 119 115 113 114 113 111 112 112 127 134 130 117 111 108 102 100 90 87 85 83 76 72 68 66 66
165 166 164 164 162 159 159 160 155 151 149 144 143 139 132 136 131 124 121 118 116 115 114 112 108 109 113 137 140 139 130 114 94 106 100 84 75 75 71 72 68 56 64
162 164 163 164 162 159 162 158 155 152 149 155 143 140 139 135 132 127 125 121 116 113 111 107 105 103 100 100 104 118 129 116 100 109 96 87 65 70 79 74 67 61 62
160 164 165 163 161 160 161 157 154 154 156 161 146 143 140 138 133 130 126 122 119 114 110 106 105 106 106 104 107 112 115 115 110 108 97 71 66 85 86 86 81 74 70
160 164 163 163 161 159 160 158 158 159 162 159 148 144 142 139 135 133 128 125 121 116 111 109 110 108 102 103 110 116 119 113 116 113 121 105 97 100 91 84 81 76 68
161 165 163 162 164 164 161 166 158 155 155 149 147 145 143 140 137 133 129 125 122 117 113 110 113 106 102 111 116 117 114 110 109 104 100 96 91 83 82 78 71 68 64
162 162 162 167 166 163 167 164 157 154 152 149 147 146 144 140 137 134 130 127 122 118 114 114 114 104 111 116 121 121 115 109 104 98 94 90 86 84 82 78 70 60 57
164 161 161 165 165 169 167 160 158 153 151 148 147 146 143 140 137 135 132 128 124 118 116 115 110 111 117 122 121 119 114 112 106 96 88 85 86 84 82 73 66 57 53
166 165 158 165 166 168 163 162 158 155 153 150 149 149 148 143 140 137 135 129 126 121 118 111 106 118 121 120 117 116 116 114 113 104 97 90 83 81 77 77 68 60 53
173 172 161 164 168 165 163 161 159 156 155 158 160 156 152 150 146 141 136 133 126 124 119 111 112 126 122 117 112 113 127 120 116 104 100 96 89 85 79 73 65 62 53
177 175 168 167 170 167 163 165 163 162 164 162 156 151 146 143 139 137 134 131 130 132 127 120 117 129 126 117 109 114 121 122 114 111 97 90 88 81 77 71 71 64 61
179 173 168 169 170 170 169 169 167 165 160 154 151 148 145 142 140 140 137 138 136 135 132 129 129 127 126 117 110 117 125 126 123 118 109 98 90 88 83 82 78 72 64
176 171 164 169 172 174 172 171 168 164 159 154 151 149 148 146 144 141 141 142 143 140 138 138 137 132 129 119 112 114 130 131 126 117 106 100 93 91 88 85 80 73 68
193 161 165 171 174 175 174 171 169 165 163 159 156 153 153 152 151 148 148 146 142 141 136 135 138 134 128 123 115 113 113 119 120 117 111 106 99 92 89 87 81 73 66
271 162 169 174 175 178 175 173 170 167 165 166 162 158 159 160 157 151 149 149 144 142 143 140 140 139 133 127 120 114 111 111 110 108 106 104 102 93 88 83 78 72 65
293 153 162 173 172 181 178 174 171 169 171 169 167 165 166 166 162 157 154 149 149 145 150 148 147 144 140 137 128 123 116 113 112 108 105 99 97 95 88 79 76 71 67
217 63 98 149 174 177 176 173 173 174 171 171 171 168 167 168 167 161 160 155 152 151 152 152 152 150 150 145 145 138 136 132 126 111 109 98 91 77 83 77 71 69 69
169 167 75 83 118 171 172 174 174 172 170 169 169 168 166 169 169 167 164 157 157 157 156 159 156 160 156 157 159 160 166 161 158 136 127 106 88 63 56 54 49 41 45
167 175 209 119 93 94 166 168 169 169 170 169 166 165 167 168 169 166 163 165 162 163 160 159 159 153 153 155 162 178 189 193 204 215 201 200 226 31 18 22 17 19 16
163 177 158 164 170 137 79 108 152 159 165 167 166 166 167 167 169 170 167 164 162 165 160 161 153 145 131 148 162 186 199 215 217 226 233 237 244 263 283 315 339 346 2
153 156 173 156 165 171 169 182 29 162 168 170 165 162 166 165 165 168 167 165 164 163 163 163 163 146 132 146 159 135 38 249 228 229 227 235 247 258 269 272 279 299 305
168 164 164 183 182 181 177 175 178 120 152 160 157 153 156 158 158 165 165 167 162 169 170 163 164 159 157 151 143 139 82 234 311 229 226 226 229 248 268 270 277 284 285
168 178 175 180 174 173 175 178 176 172 171 174 164 158 156 159 163 168 170 168 168 175 178 171 170 154 161 174 184 152 130 122 192 315 231 221 233 247 254 259 271 276 283
172 174 178 183 178 178 184 186 182 188 179 170 155 162 166 171 181 184 181 177 180 181 188 182 183 185 186 183 186 157 168 299 262 114 291 321 263 251 263 277 287 279 274
173 179 181 180 182 185 185 186 187 185 178 178 178 177 183 185 195 200 191 189 188 189 186 185 194 194 204 206 204 180 237 200 226 220 221 268 289 292 272 268 274 279 267
Height
756 760 766 771 775 778 782 785 788 789 792 794 796 798 799 800 802 803 803 804 804 805 806 807 808 809 810 810 811 811 811 812 812 813 813 813 814 814 814 814 814 814 814
749 757 763 769 773 776 781 784 787 789 791 794 796 798 799 801 802 803 804 805 805 806 806 807 808 809 810 810 811 812 813 814 814 815 815 816 816 816 816 816 816 816 816
748 755 761 766 771 775 779 782 785 788 791 794 796 798 799 801 802 803 805 805 806 807 807 807 808 809 809 810 811 812 813 815 815 816 817 817 818 818 817 818 818 818 817
745 753 759 764 768 772 778 781 785 788 790 793 796 798 799 801 803 804 805 806 807 807 808 808 808 809 810 811 812 812 814 815 816 817 819 819 819 820 819 819 820 819 819
746 752 757 762 767 771 776 780 784 786 789 792 795 797 800 802 804 805 806 807 808 808 809 809 810 810 811 812 813 814 815 816 818 819 820 821 821 821 821 821 821 821 821
745 752 757 763 766 771 776 779 783 786 788 791 794 797 800 802 804 806 807 808 809 810 810 811 811 813 813 813 815 815 817 818 819 820 821 822 822 822 823 823 823 823 823
744 750 757 762 767 771 775 780 783 785 788 791 794 797 800 802 804 806 808 809 810 811 812 813 814 815 815 816 816 818 819 820 821 821 822 823 824 825 825 825 825 825 825
748 750 756 762 767 771 775 779 783 786 789 791 794 797 800 802 804 806 808 810 811 812 813 815 816 817 818 819 819 820 822 822 823 824 825 826 826 827 827 828 828 828 827
754 754 757 762 768 772 776 779 783 786 790 792 795 798 800 802 805 807 809 810 812 814 815 817 818 819 819 820 822 823 824 824 825 827 828 828 829 829 829 830 830 830 830
760 759 758 763 768 773 777 780 782 786 790 793 795 797 800 803 805 807 809 811 813 815 816 819 820 821 821 822 824 825 826 826 827 828 829 830 831 832 832 833 833 832 833
761 762 761 764 770 774 778 782 784 786 789 792 794 796 799 803 805 807 809 812 814 816 817 820 821 822 823 824 825 826 827 827 827 829 830 831 833 834 835 835 835 835 834
756 759 761 764 770 776 780 782 784 785 788 791 795 797 799 802 805 808 810 813 815 816 818 821 823 825 826 826 826 827 828 829 831 832 833 833 835 836 837 837 837 836 835
752 756 757 761 768 775 780 783 785 788 788 792 796 798 800 802 806 808 810 814 816 817 820 823 825 826 827 828 828 829 830 831 833 834 834 835 836 837 837 838 838 838 837
742 751 753 760 765 773 779 783 786 789 791 792 796 798 801 803 806 809 812 815 817 818 820 823 827 828 829 830 831 831 832 833 834 835 836 837 838 838 839 839 839 839 839
731 746 753 757 764 772 779 783 786 789 792 794 796 799 803 805 807 810 812 815 817 819 822 824 827 830 831 832 833 833 834 835 836 836 838 839 840 840 840 841 841 841 841
729 741 753 756 763 772 778 782 786 790 793 796 798 800 804 807 809 811 813 816 818 820 822 825 828 830 832 834 834 835 835 836 838 839 839 840 841 842 842 842 842 843 843
756 743 747 754 762 771 778 782 786 789 793 796 798 801 804 807 810 812 814 816 819 821 823 826 828 831 833 836 836 837 838 839 839 840 841 842 843 843 844 844 844 844 844
755 746 749 757 762 769 775 781 786 790 793 797 798 801 804 808 811 812 815 817 819 821 824 827 829 831 834 836 838 839 840 840 841 841 842 843 845 845 844 844 845 845 844
748 755 752 761 768 772 775 782 787 791 795 798 800 802 805 808 811 813 815 818 820 823 824 827 829 832 834 836 838 840 841 842 842 842 843 844 846 846 846 846 846 846 845
743 754 747 753 772 775 781 786 790 793 796 798 800 802 804 808 811 814 816 819 821 824 826 827 829 832 833 836 838 839 841 841 843 843 843 844 846 847 848 847 847 846 846
748 757 759 755 766 771 787 794 794 796 798 799 799 801 804 807 811 813 816 819 822 825 827 829 830 832 833 836 838 840 840 841 841 842 843 844 845 846 846 847 847 847 846
755 762 759 764 771 776 776 796 797 798 800 801 801 801 804 807 810 814 816 819 821 824 828 829 830 831 834 835 836 838 840 841 840 840 840 841 843 845 846 847 846 847 846
754 758 757 762 768 772 774 782 794 797 799 802 801 801 804 807 810 814 816 819 821 825 827 828 830 829 832 835 836 837 841 840 841 839 838 839 840 842 844 846 845 845 845
750 750 752 761 764 770 779 788 786 789 795 799 799 802 802 806 809 813 815 817 820 823 826 827 829 829 831 834 837 836 837 840 842 842 838 838 839 840 841 843 844 843 843
746 751 754 761 767 771 778 783 787 792 793 795 795 798 802 804 809 811 812 813 817 820 824 824 827 829 830 832 832 835 837 839 842 841 841 839 839 838 840 841 843 842 841
750 754 759 764 768 772 778 779 783 785 785 790 794 796 800 803 806 810 808 809 812 815 818 820 825 827 829 831 833 829 837 838 840 841 843 840 841 839 840 839 839 839 839